| time (UTC) | temp F | wind direction | speed knots | gust knots | rain 1hr in | rain 24hr in | rain mn in | humidity % | barometer mb |
| 20260508013603 | 56 | 130 | 0.0 | 0.9 | 0.00 | 0.00 | 0.00 | 76 | 1006.6 |
| 20260508012703 | 56 | 0 | 0.0 | 0.0 | 0.00 | 0.00 | 0.00 | 76 | 1006.8 |
| 20260508011803 | 56 | 202 | 0.0 | 3.5 | 0.00 | 0.00 | 0.00 | 76 | 1006.8 |
| 20260508010903 | 56 | 197 | 0.0 | 3.5 | 0.00 | 0.00 | 0.00 | 75 | 1006.8 |
| 20260508010003 | 57 | 182 | 0.0 | 0.9 | 0.00 | 0.00 | 0.00 | 75 | 1006.9 |
| 20260508005403 | 57 | 207 | 0.0 | 0.9 | 0.00 | 0.00 | 0.00 | 75 | 1006.9 |
| 20260508004503 | 56 | 193 | 0.0 | 0.9 | 0.00 | 0.00 | 0.00 | 76 | 1006.9 |
| 20260508003603 | 56 | 0 | 0.0 | 0.0 | 0.00 | 0.00 | 0.00 | 77 | 1007.0 |
| 20260508002703 | 56 | 134 | 0.0 | 1.7 | 0.00 | 0.00 | 0.00 | 78 | 1007.1 |
| 20260508002016 | 56 | 332 | 0.0 | 0.9 | 0.00 | 0.00 | 0.00 | 78 | 1007.1 |
| 20260508000903 | 56 | 0 | 0.0 | 0.0 | 0.00 | 0.00 | 0.00 | 76 | 1007.1 |
| 20260508000003 | 57 | 0 | 0.0 | 0.0 | 0.00 | 0.00 | 0.00 | 75 | 1007.0 |
| 20260507235403 | 57 | 0 | 0.0 | 0.0 | 0.00 | 0.00 | 0.00 | 75 | 1007.0 |
| 20260507234503 | 57 | 0 | 0.0 | 0.0 | 0.00 | 0.00 | 0.00 | 75 | 1007.1 |
| 20260507233605 | 57 | 277 | 0.0 | 2.6 | 0.00 | 0.00 | 0.00 | 75 | 1007.1 |
| 20260507232703 | 57 | 286 | 0.0 | 2.6 | 0.00 | 0.00 | 0.00 | 75 | 1007.1 |
| 20260507231803 | 57 | 307 | 0.0 | 1.7 | 0.00 | 0.00 | 0.00 | 75 | 1007.4 |
| 20260507230903 | 57 | 331 | 0.9 | 3.5 | 0.00 | 0.00 | 0.00 | 76 | 1007.4 |
| 20260507230004 | 57 | 350 | 0.0 | 1.7 | 0.00 | 0.00 | 0.00 | 76 | 1007.5 |
| 20260507225404 | 57 | 320 | 0.9 | 3.5 | 0.00 | 0.00 | 0.00 | 76 | 1007.1 |
| 20260507224504 | 57 | 333 | 0.9 | 5.2 | 0.00 | 0.00 | 0.00 | 76 | 1007.1 |
| 20260507223605 | 57 | 351 | 1.7 | 6.1 | 0.00 | 0.00 | 0.00 | 76 | 1007.1 |
| 20260507222916 | 57 | 332 | 1.7 | 6.1 | 0.00 | 0.00 | 0.00 | 76 | 1007.1 |
| 20260507221803 | 57 | 331 | 1.7 | 6.1 | 0.00 | 0.00 | 0.00 | 77 | 1007.1 |
| 20260507220903 | 57 | 315 | 1.7 | 6.1 | 0.00 | 0.00 | 0.00 | 77 | 1007.4 |
| 20260507220007 | 57 | 330 | 2.6 | 7.0 | 0.00 | 0.00 | 0.00 | 79 | 1007.1 |
| 20260507215403 | 57 | 320 | 1.7 | 7.0 | 0.00 | 0.00 | 0.00 | 80 | 1007.0 |
| 20260507214503 | 57 | 307 | 1.7 | 5.2 | 0.00 | 0.00 | 0.00 | 82 | 1006.7 |
| 20260507213605 | 57 | 327 | 1.7 | 3.5 | 0.00 | 0.00 | 0.00 | 82 | 1006.9 |
| 20260507212703 | 57 | 325 | 1.7 | 8.7 | 0.00 | 0.00 | 0.00 | 83 | 1006.7 |
| 20260507211803 | 57 | 333 | 1.7 | 5.2 | 0.00 | 0.00 | 0.00 | 84 | 1006.8 |
| 20260507211118 | 57 | 320 | 0.9 | 3.5 | 0.00 | 0.00 | 0.00 | 84 | 1006.9 |
| 20260507210218 | 57 | 310 | 0.9 | 5.2 | 0.00 | 0.00 | 0.00 | 83 | 1006.6 |
| 20260507205403 | 58 | 318 | 1.7 | 5.2 | 0.00 | 0.00 | 0.00 | 82 | 1006.9 |
| 20260507204503 | 58 | 326 | 0.9 | 5.2 | 0.00 | 0.00 | 0.00 | 82 | 1006.8 |
| 20260507203603 | 58 | 338 | 0.0 | 2.6 | 0.00 | 0.00 | 0.00 | 83 | 1006.7 |
| 20260507202705 | 58 | 0 | 0.0 | 0.0 | 0.00 | 0.00 | 0.00 | 82 | 1006.6 |
| 20260507202018 | 58 | 0 | 0.0 | 0.0 | 0.00 | 0.00 | 0.00 | 82 | 1006.7 |
| 20260507201118 | 58 | 0 | 0.0 | 0.0 | 0.00 | 0.00 | 0.00 | 82 | 1006.6 |
| 20260507200217 | 58 | 0 | 0.0 | 0.0 | 0.00 | 0.00 | 0.00 | 81 | 1006.5 |
| 20260507195403 | 58 | 0 | 0.0 | 0.0 | 0.00 | 0.00 | 0.00 | 81 | 1006.4 |
| 20260507194716 | 58 | 0 | 0.0 | 0.0 | 0.00 | 0.00 | 0.00 | 81 | 1006.3 |
| 20260507193605 | 58 | 0 | 0.0 | 0.0 | 0.00 | 0.00 | 0.00 | 79 | 1005.9 |
| 20260507192703 | 58 | 0 | 0.0 | 0.0 | 0.00 | 0.00 | 0.00 | 79 | 1005.8 |
| 20260507191803 | 58 | 358 | 0.0 | 0.9 | 0.00 | 0.00 | 0.00 | 79 | 1005.8 |
| 20260507190905 | 59 | 6 | 0.0 | 0.9 | 0.00 | 0.00 | 0.00 | 79 | 1005.7 |
| 20260507185405 | 59 | 12 | 0.0 | 0.9 | 0.00 | 0.00 | 0.00 | 79 | 1005.5 |
| 20260507184720 | 60 | 15 | 0.0 | 0.9 | 0.00 | 0.00 | 0.00 | 78 | 1005.6 |
| 20260507183603 | 60 | 8 | 0.0 | 0.9 | 0.00 | 0.00 | 0.00 | 77 | 1005.4 |
| 20260507182703 | 60 | 22 | 0.0 | 0.9 | 0.00 | 0.00 | 0.00 | 77 | 1005.4 |
| 20260507181803 | 61 | 346 | 0.0 | 0.9 | 0.00 | 0.00 | 0.00 | 76 | 1005.4 |
| 20260507180903 | 61 | 354 | 0.0 | 0.9 | 0.00 | 0.00 | 0.00 | 76 | 1005.4 |
| 20260507180004 | 61 | 354 | 0.0 | 0.9 | 0.00 | 0.00 | 0.00 | 74 | 1005.2 |
| 20260507175403 | 61 | 4 | 0.0 | 0.9 | 0.00 | 0.00 | 0.00 | 74 | 1005.0 |
| 20260507174503 | 61 | 356 | 0.0 | 0.9 | 0.00 | 0.00 | 0.00 | 75 | 1005.0 |
| 20260507173819 | 62 | 355 | 0.0 | 1.7 | 0.00 | 0.00 | 0.00 | 73 | 1004.8 |
| 20260507172705 | 62 | 5 | 0.0 | 0.9 | 0.00 | 0.00 | 0.00 | 71 | 1004.8 |
| 20260507171803 | 64 | 24 | 0.0 | 1.7 | 0.00 | 0.00 | 0.00 | 67 | 1004.9 |
| 20260507170905 | 65 | 0 | 0.0 | 0.0 | 0.00 | 0.00 | 0.00 | 59 | 1004.9 |
| 20260507170216 | 65 | 0 | 0.0 | 0.0 | 0.00 | 0.00 | 0.00 | 54 | 1004.7 |
| 20260507165405 | 65 | 329 | 0.0 | 0.9 | 0.00 | 0.00 | 0.00 | 55 | 1004.7 |
| 20260507164505 | 65 | 13 | 0.0 | 0.9 | 0.00 | 0.00 | 0.00 | 57 | 1004.7 |
| 20260507163603 | 65 | 295 | 0.0 | 0.9 | 0.00 | 0.00 | 0.00 | 56 | 1004.7 |
| 20260507162705 | 65 | 287 | 0.0 | 1.7 | 0.00 | 0.00 | 0.00 | 54 | 1004.7 |
| 20260507161803 | 67 | 305 | 0.0 | 1.7 | 0.00 | 0.00 | 0.00 | 53 | 1004.6 |
| 20260507160903 | 68 | 345 | 0.0 | 2.6 | 0.00 | 0.00 | 0.00 | 52 | 1004.6 |
| 20260507160003 | 68 | 345 | 0.0 | 1.7 | 0.00 | 0.00 | 0.00 | 50 | 1004.6 |
| 20260507155403 | 68 | 0 | 0.0 | 0.0 | 0.00 | 0.00 | 0.00 | 52 | 1004.6 |
| 20260507154718 | 67 | 340 | 0.0 | 0.9 | 0.00 | 0.00 | 0.00 | 51 | 1004.4 |
| 20260507153603 | 66 | 0 | 0.0 | 0.0 | 0.00 | 0.00 | 0.00 | 52 | 1004.6 |
| 20260507152703 | 66 | 37 | 0.0 | 0.9 | 0.00 | 0.00 | 0.00 | 53 | 1004.6 |
| 20260507151803 | 66 | 0 | 0.0 | 0.0 | 0.00 | 0.00 | 0.00 | 54 | 1004.6 |
| 20260507150905 | 65 | 0 | 0.0 | 0.0 | 0.00 | 0.00 | 0.00 | 56 | 1004.7 |
| 20260507150219 | 65 | 0 | 0.0 | 0.0 | 0.00 | 0.00 | 0.00 | 55 | 1004.8 |
| 20260507145403 | 66 | 0 | 0.0 | 0.0 | 0.00 | 0.00 | 0.00 | 54 | 1004.8 |
| 20260507144503 | 65 | 0 | 0.0 | 0.0 | 0.00 | 0.00 | 0.00 | 55 | 1004.9 |
| 20260507143603 | 65 | 135 | 0.0 | 2.6 | 0.00 | 0.00 | 0.00 | 55 | 1004.7 |
| 20260507142917 | 65 | 140 | 0.0 | 2.6 | 0.00 | 0.00 | 0.00 | 55 | 1005.0 |
| 20260507141803 | 68 | 50 | 0.0 | 2.6 | 0.00 | 0.00 | 0.00 | 52 | 1004.8 |
| 20260507140903 | 67 | 116 | 0.0 | 0.9 | 0.00 | 0.00 | 0.00 | 54 | 1005.0 |
| 20260507140003 | 65 | 0 | 0.0 | 0.0 | 0.00 | 0.00 | 0.00 | 57 | 1005.3 |
| 20260507135403 | 64 | 193 | 0.0 | 1.7 | 0.00 | 0.00 | 0.00 | 56 | 1005.2 |
| 20260507134503 | 65 | 95 | 0.0 | 0.9 | 0.00 | 0.00 | 0.00 | 57 | 1005.2 |
| 20260507133603 | 66 | 95 | 0.0 | 0.9 | 0.00 | 0.00 | 0.00 | 56 | 1005.3 |
| 20260507132703 | 66 | 142 | 0.0 | 0.9 | 0.00 | 0.00 | 0.00 | 55 | 1005.5 |
| 20260507132016 | 66 | 142 | 0.0 | 0.9 | 0.00 | 0.00 | 0.00 | 56 | 1005.5 |
| 20260507130903 | 64 | 152 | 0.9 | 3.5 | 0.00 | 0.00 | 0.00 | 59 | 1005.4 |
| 20260507130218 | 65 | 169 | 0.9 | 2.6 | 0.00 | 0.00 | 0.00 | 59 | 1005.5 |
| 20260507125403 | 66 | 154 | 0.9 | 5.2 | 0.00 | 0.00 | 0.00 | 59 | 1005.5 |
| 20260507124503 | 65 | 210 | 0.9 | 3.5 | 0.00 | 0.00 | 0.00 | 60 | 1005.2 |
| 20260507123603 | 64 | 90 | 0.0 | 3.5 | 0.00 | 0.00 | 0.00 | 59 | 1005.6 |
| 20260507122705 | 65 | 102 | 0.0 | 3.5 | 0.00 | 0.00 | 0.00 | 58 | 1005.5 |
| 20260507121803 | 65 | 128 | 0.0 | 0.9 | 0.00 | 0.00 | 0.00 | 60 | 1005.6 |
| 20260507120903 | 65 | 147 | 0.0 | 3.5 | 0.00 | 0.00 | 0.00 | 61 | 1005.7 |
| 20260507120004 | 66 | 193 | 0.9 | 3.5 | 0.00 | 0.00 | 0.00 | 60 | 1005.7 |
| 20260507115618 | 66 | 200 | 0.9 | 3.5 | 0.00 | 0.00 | 0.00 | 59 | 1005.7 |
| 20260507114717 | 65 | 137 | 0.0 | 5.2 | 0.00 | 0.00 | 0.00 | 61 | 1005.8 |
| 20260507113603 | 64 | 95 | 0.9 | 5.2 | 0.00 | 0.00 | 0.00 | 60 | 1005.9 |
| 20260507112920 | 62 | 165 | 0.0 | 1.7 | 0.00 | 0.00 | 0.00 | 64 | 1005.9 |
| 20260507111803 | 64 | 134 | 0.0 | 1.7 | 0.00 | 0.00 | 0.00 | 63 | 1006.2 |
| 20260507110903 | 64 | 210 | 0.0 | 5.2 | 0.00 | 0.00 | 0.00 | 63 | 1006.3 |
| 20260507110003 | 65 | 222 | 0.0 | 5.2 | 0.00 | 0.00 | 0.00 | 63 | 1006.3 |
| 20260507105403 | 64 | 199 | 0.0 | 0.9 | 0.00 | 0.00 | 0.00 | 63 | 1006.4 |
| 20260507104504 | 62 | 158 | 0.0 | 3.5 | 0.00 | 0.00 | 0.00 | 66 | 1006.3 |
| 20260507103603 | 63 | 146 | 0.0 | 0.9 | 0.00 | 0.00 | 0.00 | 65 | 1006.5 |
| 20260507102705 | 62 | 180 | 0.0 | 3.5 | 0.00 | 0.00 | 0.00 | 66 | 1006.4 |
| 20260507102018 | 62 | 246 | 0.0 | 3.5 | 0.00 | 0.00 | 0.00 | 67 | 1006.5 |
| 20260507100905 | 60 | 194 | 0.0 | 3.5 | 0.00 | 0.00 | 0.00 | 72 | 1006.5 |
| 20260507100003 | 59 | 200 | 0.9 | 5.2 | 0.00 | 0.00 | 0.00 | 72 | 1006.4 |
| 20260507095403 | 60 | 204 | 0.9 | 5.2 | 0.00 | 0.00 | 0.00 | 72 | 1006.6 |
| 20260507094503 | 60 | 162 | 0.0 | 2.6 | 0.00 | 0.00 | 0.00 | 69 | 1006.5 |
| 20260507093819 | 61 | 175 | 0.0 | 2.6 | 0.00 | 0.00 | 0.00 | 68 | 1006.4 |
| 20260507092919 | 60 | 191 | 0.9 | 2.6 | 0.00 | 0.00 | 0.00 | 70 | 1006.5 |
| 20260507091803 | 60 | 182 | 0.9 | 6.1 | 0.00 | 0.00 | 0.00 | 73 | 1006.4 |
| 20260507091117 | 58 | 142 | 0.9 | 5.2 | 0.00 | 0.00 | 0.00 | 75 | 1006.3 |
| 20260507090006 | 58 | 163 | 0.0 | 0.9 | 0.00 | 0.00 | 0.00 | 77 | 1006.2 |
| 20260507085403 | 58 | 216 | 1.7 | 5.2 | 0.00 | 0.00 | 0.00 | 77 | 1006.2 |
| 20260507084505 | 58 | 210 | 0.9 | 5.2 | 0.00 | 0.00 | 0.00 | 76 | 1006.0 |
| 20260507083603 | 59 | 199 | 0.9 | 3.5 | 0.00 | 0.00 | 0.00 | 75 | 1006.3 |
| 20260507082918 | 59 | 155 | 0.0 | 2.6 | 0.00 | 0.00 | 0.00 | 75 | 1006.1 |
| 20260507081805 | 58 | 182 | 0.0 | 2.6 | 0.00 | 0.00 | 0.00 | 77 | 1006.1 |
| 20260507080903 | 58 | 139 | 0.0 | 0.9 | 0.00 | 0.00 | 0.00 | 76 | 1006.0 |
| 20260507080216 | 57 | 0 | 0.0 | 0.0 | 0.00 | 0.00 | 0.00 | 77 | 1006.2 |
| 20260507075403 | 57 | 0 | 0.0 | 0.0 | 0.00 | 0.00 | 0.00 | 75 | 1006.1 |
| 20260507074505 | 56 | 0 | 0.0 | 0.0 | 0.00 | 0.00 | 0.00 | 76 | 1005.9 |
| 20260507073603 | 56 | 0 | 0.0 | 0.0 | 0.00 | 0.00 | 0.00 | 74 | 1006.2 |
| 20260507072703 | 56 | 0 | 0.0 | 0.0 | 0.00 | 0.00 | 0.00 | 74 | 1006.0 |
| 20260507071803 | 55 | 330 | 0.0 | 0.9 | 0.00 | 0.00 | 0.00 | 76 | 1006.1 |
| 20260507070903 | 55 | 316 | 0.0 | 0.9 | 0.00 | 0.00 | 0.00 | 74 | 1006.1 |
| 20260507070007 | 54 | 0 | 0.0 | 0.0 | 0.00 | 0.00 | 0.00 | 75 | 1006.0 |
| 20260507065404 | 53 | 0 | 0.0 | 0.0 | 0.00 | 0.00 | 0.00 | 74 | 1006.0 |
| 20260507064503 | 53 | 347 | 0.0 | 0.9 | 0.00 | 0.00 | 0.00 | 75 | 1005.8 |
| 20260507063603 | 52 | 0 | 0.0 | 0.0 | 0.00 | 0.00 | 0.00 | 74 | 1005.9 |
| 20260507062703 | 52 | 0 | 0.0 | 0.0 | 0.00 | 0.00 | 0.00 | 75 | 1005.9 |
| 20260507061805 | 51 | 0 | 0.0 | 0.0 | 0.00 | 0.00 | 0.00 | 80 | 1005.8 |
| 20260507060903 | 51 | 0 | 0.0 | 0.0 | 0.00 | 0.00 | 0.00 | 83 | 1005.8 |
| 20260507060004 | 51 | 0 | 0.0 | 0.0 | 0.00 | 0.00 | 0.00 | 81 | 1005.6 |
| 20260507055403 | 51 | 0 | 0.0 | 0.0 | 0.00 | 0.00 | 0.00 | 80 | 1005.8 |
| 20260507054503 | 50 | 0 | 0.0 | 0.0 | 0.00 | 0.00 | 0.00 | 80 | 1005.6 |
| 20260507053603 | 49 | 0 | 0.0 | 0.0 | 0.00 | 0.00 | 0.00 | 80 | 1005.4 |
| 20260507052703 | 49 | 43 | 0.0 | 0.9 | 0.00 | 0.00 | 0.00 | 80 | 1005.2 |
| 20260507052017 | 49 | 0 | 0.0 | 0.0 | 0.00 | 0.00 | 0.00 | 82 | 1005.4 |
| 20260507050903 | 49 | 354 | 0.0 | 0.9 | 0.00 | 0.00 | 0.00 | 81 | 1004.8 |
| 20260507050005 | 49 | 0 | 0.0 | 0.0 | 0.00 | 0.00 | 0.00 | 80 | 1005.0 |
| 20260507045403 | 49 | 57 | 0.0 | 0.9 | 0.00 | 0.00 | 0.00 | 79 | 1004.8 |
| 20260507044718 | 49 | 53 | 0.0 | 0.9 | 0.00 | 0.00 | 0.00 | 80 | 1004.9 |
| 20260507043603 | 49 | 0 | 0.0 | 0.0 | 0.00 | 0.00 | 0.00 | 76 | 1004.7 |
| 20260507042705 | 50 | 0 | 0.0 | 0.0 | 0.00 | 0.00 | 0.00 | 80 | 1004.6 |
| 20260507041805 | 50 | 0 | 0.0 | 0.0 | 0.00 | 0.00 | 0.00 | 79 | 1004.4 |
| 20260507040903 | 50 | 82 | 0.0 | 0.9 | 0.00 | 0.00 | 0.00 | 76 | 1004.2 |
| 20260507040219 | 50 | 0 | 0.0 | 0.0 | 0.00 | 0.00 | 0.00 | 76 | 1004.2 |
| 20260507035403 | 50 | 0 | 0.0 | 0.0 | 0.00 | 0.00 | 0.00 | 76 | 1004.2 |
| 20260507034503 | 50 | 0 | 0.0 | 0.0 | 0.00 | 0.00 | 0.00 | 76 | 1004.1 |
| 20260507033605 | 50 | 0 | 0.0 | 0.0 | 0.00 | 0.02 | 0.00 | 76 | 1004.2 |
| 20260507032704 | 51 | 0 | 0.0 | 0.0 | 0.00 | 0.03 | 0.00 | 75 | 1004.2 |
| 20260507031803 | 51 | 0 | 0.0 | 0.0 | 0.00 | 0.05 | 0.00 | 75 | 1004.2 |
| 20260507030903 | 51 | 0 | 0.0 | 0.0 | 0.00 | 0.07 | 0.00 | 74 | 1004.1 |
| 20260507030003 | 52 | 0 | 0.0 | 0.0 | 0.00 | 0.08 | 0.00 | 76 | 1004.2 |
| 20260507025618 | 52 | 0 | 0.0 | 0.0 | 0.00 | 0.09 | 0.00 | 78 | 1004.0 |
| 20260507024505 | 51 | 224 | 0.0 | 0.9 | 0.00 | 0.11 | 0.00 | 78 | 1004.1 |
| 20260507023603 | 51 | 315 | 0.0 | 0.9 | 0.00 | 0.14 | 0.00 | 80 | 1004.3 |
| 20260507022703 | 51 | 0 | 0.0 | 0.0 | 0.00 | 0.15 | 0.00 | 82 | 1004.2 |
| 20260507021805 | 51 | 0 | 0.0 | 0.0 | 0.00 | 0.18 | 0.00 | 80 | 1004.1 |
| 20260507020903 | 51 | 0 | 0.0 | 0.0 | 0.00 | 0.18 | 0.00 | 79 | 1004.1 |
| 20260507020003 | 51 | 0 | 0.0 | 0.0 | 0.00 | 0.18 | 0.00 | 80 | 1004.1 |
| 20260507015403 | 51 | 0 | 0.0 | 0.0 | 0.00 | 0.18 | 0.00 | 77 | 1004.2 |
| 20260507014505 | 51 | 54 | 0.0 | 0.9 | 0.00 | 0.18 | 0.00 | 78 | 1004.0 |